Content
SEND FEEDBACK

Daily
Averages
Monthly
Summary
United States of America

OVERLAND PARK, KANSAS


Home > North America > United States > Kansas
Elevation: 1036 feet     Latitude: 38 53N     Longitude: 094 46W

WEATHER
 
SELECT A DAY
Number of Records: 194,840;   Date Range: 1/1/95 - 9/3/14
 
SHARE

PRINT THIS DATA

[ ← Previous Day ]
WEATHER ALMANAC - FEBRUARY 13, 2013
[ Next Day → ]
[ °C ]   °F
Weather ElementAverageHighLow
Temperature40.7 °F54 °F (2:53 pm)28 °F (5:53 am)
Dewpoint24.2 °F27 °F (11:53 am)23 °F (5:53 am)
Humidity55 %81 % (5:53 am)31 % (3:53 pm)
Barometer29.88 in29.96 in (1:53 am)29.82 in (4:53 pm)
Wind Speed7.5 mph15 mph (3:53 pm)
Wind Gust21.9 mph (3:53 pm)
Weather ElementAverage
Visibility10 mi
Wind DirectionWSW (254.8 °)

Weather ElementTotal
Precipitation---
Heating Degree Days24 (Base 65)
Averaged from 23 records on February 13, 2013
WEATHER CONDITIONS BREAKOUT
WIND DIRECTION BREAKOUT
WEATHER BY HOUR - FEBRUARY 13, 2013
[ °C ]   °F
Local TimeTemperatureDewpointHumidityBarometerVisibilityWind DirectionWind SpeedGust SpeedPrecipitationEventsConditions
1:53 AM33.1 °F24.1 °F70 %29.96 in10.0 miWest (260°)8.1 mphClear
2:53 AM33.1 °F24.1 °F70 %29.93 in10.0 miWest (260°)9.2 mphClear
3:53 AM30.9 °F24.1 °F76 %29.91 in10.0 miWest (270°)8.1 mphClear
4:53 AM30.0 °F24.1 °F79 %29.90 in10.0 miWest (270°)6.9 mphClear
5:53 AM28.0 °F23.0 °F81 %29.91 in10.0 miWest (270°)4.6 mphClear
6:53 AM28.0 °F23.0 °F81 %29.92 in10.0 miWSW (250°)4.6 mphClear
7:53 AM28.0 °F23.0 °F81 %29.92 in10.0 miWSW (250°)3.5 mphClear
8:53 AM32.0 °F24.1 °F73 %29.93 in10.0 miWSW (250°)3.5 mphClear
9:53 AM37.9 °F25.0 °F60 %29.93 in10.0 miWest (270°)6.9 mphClear
10:53 AM44.1 °F24.1 °F45 %29.92 in10.0 miWest (270°)5.8 mphClear
11:53 AM46.9 °F27.0 °F46 %29.92 in10.0 miWest (260°)11.5 mph17.3 mphClear
12:53 PM50.0 °F26.1 °F39 %29.89 in10.0 miWest (270°)10.4 mphClear
1:53 PM53.1 °F26.1 °F35 %29.85 in10.0 miWSW (240°)10.4 mph18.4 mphClear
2:53 PM54.0 °F25.0 °F33 %29.83 in10.0 miWSW (250°)12.7 mph20.7 mphClear
3:53 PM53.1 °F23.0 °F31 %29.83 in10.0 miWest (260°)15.0 mph21.9 mphClear
4:53 PM53.1 °F23.0 °F31 %29.82 in10.0 miWest (270°)10.4 mph20.7 mphClear
5:53 PM50.0 °F23.0 °F35 %29.82 in10.0 miWest (280°)6.9 mphClear
6:53 PM46.9 °F23.0 °F39 %29.83 in10.0 miWest (270°)5.8 mphClear
7:53 PM44.1 °F24.1 °F45 %29.84 in10.0 miWSW (240°)3.5 mphClear
8:53 PM41.0 °F24.1 °F51 %29.84 in10.0 miSW (220°)4.6 mphClear
9:53 PM42.1 °F23.0 °F47 %29.83 in10.0 miSW (230°)8.1 mphClear
10:53 PM39.9 °F24.1 °F53 %29.84 in10.0 miSW (220°)5.8 mphClear
11:53 PM37.9 °F27.0 °F65 %29.84 in10.0 miSW (230°)5.8 mphClear
Hourly data recorded from KOJC, located miles away from Overland Park, Kansas







STORIES FROM OUR PARTNERS